Regional Weather Roundup
Issued by NWS

Home | Current Version | Previous Version | Text Only | Print | Product List | Glossary Off
Versions: 1 2 3 4 5 6 7 8 9 10 11 12 13 14 15 16 17 18 19 20 21 22 23 24 25 26 27 28 29 30 31 32 33 34 35 36 37 38 39 40 41 42 43 44 45 46 47 48 49 50

000
ASUS43 KTOP 012159
RWRKS

WEATHER ROUNDUP FOR KANSAS
NATIONAL WEATHER SERVICE GOODLAND KS
500 PM CDT WED OCT 01 2014

NOTE:  "FAIR" INDICATES FEW OR NO CLOUDS BELOW 12,000 FEET WITH NO
SIGNIFICANT WEATHER AND/OR OBSTRUCTIONS TO VISIBILITY.

KSZ001>006-013>018-027>032-041>047-012300-
NORTHWEST KANSAS

CITY           SKY/WX    TMP DP  RH WIND       PRES   REMARKS
GOODLAND       MOSUNNY   76  40  27 VRB5      29.79F
HAYS           SUNNY     75  61  60 E7        29.73S
HILL CITY      SUNNY     81  50  33 CALM      29.73S
RUSSELL        SUNNY     77  62  59 MISG      29.71F
$$

KSZ061>065-074>080-084>089-012300-
SOUTHWEST KANSAS

CITY           SKY/WX    TMP DP  RH WIND       PRES   REMARKS
DODGE CITY     SUNNY     80  53  39 N9        29.72F
GARDEN CITY    SUNNY     81  44  27 E8        29.73F
GREAT BEND     MOSUNNY   77  64  65 NE7       29.71S
LIBERAL        SUNNY     84  39  20 SW8       29.74S
$$

KSZ066>073-081>083-090>101-012300-
SOUTHEAST KANSAS

CITY           SKY/WX    TMP DP  RH WIND       PRES   REMARKS
CHANUTE        PTSUNNY   78  69  73 SE8       29.70F
COFFEYVILLE    PTSUNNY   78  71  79 E8        29.69F
HUTCHINSON     MOSUNNY   87  58  37 S5        29.67S
MEDICINE LODGE   N/A     91  48  22 W8        29.63F
NEWTON         MOSUNNY   86  61  42 S12G18    29.69F
PARSONS        LGT RAIN  79  67  66 SE5       29.71F
WICHITA INTL   MOSUNNY   91  60  35 S17       29.64F
WICHITA JABRA  MOSUNNY   88  63  43 S14       29.65F
WINFIELD       SUNNY     91  61  36 S16G24    29.65F
$$

KSZ007>012-019>026-033>040-048>060-102>105-012300-
NORTHEAST KANSAS

CITY           SKY/WX    TMP DP  RH WIND       PRES   REMARKS
CONCORDIA      MOSUNNY   81  61  50 NE3       29.70S
EMPORIA        MOSUNNY   82  69  64 SE12      29.69S
LAWRENCE       CLOUDY    82  65  56 SE3       29.70R
MANHATTAN      PTSUNNY   81  67  62 E5        29.68S
OLATHE IND     PTSUNNY   78  69  73 SW3       29.72R
OLATHE EXE     PTSUNNY   77  69  76 E3        29.71R
SALINA         MOSUNNY   82  67  60 NE5       29.69S
TOPEKA BILLARD CLOUDY    83  67  58 S6        29.69R
TOPEKA FORBES  CLOUDY    82  66  58 S5        29.70R
$$



USA.gov is the U.S. government's official web portal to all federal, state and local government web resources and services.